Terminal Aerodrome Forecast
Issued by NWS Memphis, TN

Home | Current Version | Previous Version | Text Only | Print | Product List | Glossary On
Versions: 1 2 3 4 5 6 7 8 9 10 11 12 13 14 15 16 17 18 19 20 21 22 23 24
000
FTUS44 KMEG 252000 AAA
TAFMEM
TAF AMD
KMEM 252050Z 2521/2618 24006KT P6SM FEW050
     FM260000 00000KT P6SM SKC
      TEMPO 2609/2612 5SM BR
     FM261500 20007KT P6SM SCT050=

USA.gov is the U.S. government's official web portal to all federal, state and local government web resources and services.